Flag for U.S.A. Weather past 2 weeks in Sunnyvale, California, U.S.A.

Now
55 °F

Clear.


Feels Like: 55 °F
Forecast: 53 / 65 °F
Wind: No wind

Location: Moffett Field

Current Time: Mar 31, 2015 at 2:44:27 AM

Latest Report: Mar 31, 2015 at 1:56 AM


Visibility: 10 mi

Pressure: 30.12 "Hg

Humidity: 69%

Dew point: 45 °F

Location of SunnyvaleLocation

Historic Weather in Sunnyvale — Graph

°F

Sunnyvale temperature yesterday

Maximum temperature yesterday: 66 °F (at 11:56 AM)
Minimum temperature yesterday: 52 °F (at 3:56 AM)
Average temperature yesterday: 59 °F

Past Weeks' High & Low Weather Summary

 TemperatureHumidityPressure
High82 °F (Mar 26, 3:56 PM)90% (Mar 23, 1:56 AM)30.33 "Hg (Mar 23, 1:56 AM)
Low48 °F (Mar 18, 4:56 AM)27% (Mar 19, 12:56 PM)30.00 "Hg (Mar 19, 6:56 PM)
Average60 °F67%30.14 "Hg
* Reported Mar 16 1:56 AM — Mar 31 1:56 AM, Sunnyvale, Weather by CustomWeather, © 2015

Note: Actual official high and low records may vary slightly from our data, if they occured in-between our weather recording intervals... More about our weather records

Advertising

Sunnyvale weather history for previous 24 hours

 ConditionsComfort  
Time TempWeatherWind HumidityBarometerVisibility
1:56 AM
Tue, Mar 31
55 °FClear.No wind69%30.12 "Hg10 mi
12:56 AM55 °FClear.3 mph69%30.11 "Hg10 mi
11:56 PM
Mon, Mar 30
56 °FClear.3 mph67%30.11 "Hg10 mi
10:56 PM55 °FClear.No wind67%30.11 "Hg10 mi
9:56 PM57 °FClear.6 mph64%30.11 "Hg10 mi
8:56 PM58 °FClear.7 mph62%30.10 "Hg10 mi
7:56 PM59 °FSunny.10 mph60%30.07 "Hg10 mi
6:56 PM62 °FSunny.10 mph54%30.06 "Hg10 mi
5:56 PM66 °FSunny.13 mph45%30.05 "Hg10 mi
4:56 PM65 °FSunny.12 mph54%30.05 "Hg10 mi
3:56 PM66 °FSunny.18 mph65%30.04 "Hg10 mi
2:56 PM66 °FSunny.20 mph65%30.05 "Hg10 mi
1:56 PM66 °FSunny.12 mph63%30.06 "Hg10 mi
12:56 PM66 °FSunny.8 mph63%30.08 "Hg10 mi
11:56 AM66 °FSunny.5 mph63%30.08 "Hg10 mi
10:56 AM64 °FSunny.9 mph68%30.09 "Hg10 mi
9:56 AM61 °FSunny.8 mph75%30.08 "Hg10 mi
8:56 AM60 °FSunny.No wind78%30.06 "Hg10 mi
7:56 AM54 °FSunny.No wind83%30.06 "Hg10 mi
6:56 AM53 °FClear.No wind77%30.04 "Hg10 mi
5:56 AM53 °FClear.No wind77%30.03 "Hg10 mi
4:56 AM53 °FClear.No wind80%30.03 "Hg10 mi
3:56 AM52 °FClear.No wind80%30.04 "Hg10 mi
2:56 AM56 °FClear.No wind81%30.04 "Hg10 mi
Weather by CustomWeather, © 2015

See weather overviewHow to use our weather pages